Stündliche Wetter Kristiansand

Heute, 14 Mai, Freitag

Zeit Temperatur Niederschläge Wind Luftdruck Luftfeuchtigkeit
00:00 +14°C° 0.4 mm 2 m/S 745 mmHg 88%
01:00 +14°C° 0.4 mm 2 m/S 745 mmHg 92%
02:00 +14°C° 0.7 mm 2 m/S 745 mmHg 93%
03:00 +14°C° 0.7 mm 2 m/S 745 mmHg 94%
04:00 +13°C° 0.7 mm 3 m/S 744 mmHg 95%
05:00 +13°C° 0.3 mm 3 m/S 745 mmHg 94%
06:00 +13°C° 0.3 mm 4 m/S 745 mmHg 94%
07:00 +13°C° 0.3 mm 4 m/S 745 mmHg 93%
08:00 +12°C° 0.2 mm 4 m/S 745 mmHg 93%
09:00 +12°C° 0.2 mm 5 m/S 745 mmHg 93%
10:00 +12°C° 0.2 mm 5 m/S 746 mmHg 93%
11:00 +13°C° 0.1 mm 5 m/S 746 mmHg 89%
12:00 +13°C° 0.1 mm 4 m/S 746 mmHg 85%
13:00 +14°C° 0.1 mm 4 m/S 746 mmHg 81%
14:00 +15°C° 0 mm 4 m/S 746 mmHg 77%
15:00 +16°C° 0 mm 3 m/S 745 mmHg 72%
16:00 +17°C° 0 mm 3 m/S 745 mmHg 67%
17:00 +16°C° 0 mm 2 m/S 745 mmHg 70%
18:00 +15°C° 0 mm 1 m/S 745 mmHg 74%
19:00 +15°C° 0 mm 1 m/S 745 mmHg 77%
20:00 +14°C° 0 mm 1 m/S 744 mmHg 81%
21:00 +12°C° 0 mm 0 m/S 744 mmHg 85%
22:00 +11°C° 0 mm 0 m/S 744 mmHg 89%
23:00 +12°C° 0.1 mm 1 m/S 744 mmHg 90%

Morgen, 15 Mai, Samstag

Zeit Temperatur Niederschläge Wind Luftdruck Luftfeuchtigkeit
00:00 +12°C° 0.1 mm 2 m/S 744 mmHg 91%
01:00 +12°C° 0.1 mm 2 m/S 744 mmHg 92%
02:00 +10°C° 0.5 mm 3 m/S 744 mmHg 93%
03:00 +10°C° 0.5 mm 4 m/S 744 mmHg 94%
04:00 +9°C° 0.5 mm 5 m/S 744 mmHg 95%
05:00 +9°C° 0 mm 5 m/S 744 mmHg 94%
06:00 +9°C° 0 mm 5 m/S 744 mmHg 93%
07:00 +9°C° 0 mm 5 m/S 744 mmHg 92%
08:00 +10°C° 0.1 mm 5 m/S 744 mmHg 90%
09:00 +10°C° 0.1 mm 5 m/S 743 mmHg 88%
10:00 +10°C° 0.1 mm 5 m/S 743 mmHg 86%
11:00 +12°C° 0.3 mm 5 m/S 743 mmHg 83%
12:00 +12°C° 0.3 mm 4 m/S 743 mmHg 81%
13:00 +12°C° 0.3 mm 4 m/S 743 mmHg 78%
14:00 +12°C° 0.4 mm 4 m/S 743 mmHg 81%
15:00 +11°C° 0.4 mm 3 m/S 743 mmHg 84%
16:00 +12°C° 0.4 mm 2 m/S 743 mmHg 87%
17:00 +10°C° 0.4 mm 2 m/S 743 mmHg 89%
18:00 +10°C° 0.4 mm 2 m/S 743 mmHg 90%
19:00 +10°C° 0.4 mm 2 m/S 743 mmHg 92%
20:00 +9°C° 0.2 mm 2 m/S 743 mmHg 93%
21:00 +9°C° 0.2 mm 2 m/S 744 mmHg 94%
22:00 +9°C° 0.2 mm 2 m/S 744 mmHg 96%
23:00 +9°C° 0 mm 2 m/S 744 mmHg 96%

übermorgen, 16 Mai, Sonntag

Zeit Temperatur Niederschläge Wind Luftdruck Luftfeuchtigkeit
00:00 +9°C° 0 mm 2 m/S 744 mmHg 96%
01:00 +8°C° 0 mm 2 m/S 744 mmHg 96%
02:00 +8°C° 0 mm 2 m/S 744 mmHg 96%
03:00 +8°C° 0 mm 2 m/S 744 mmHg 95%
04:00 +7°C° 0 mm 2 m/S 744 mmHg 95%
05:00 +9°C° 0 mm 1 m/S 744 mmHg 91%
06:00 +9°C° 0 mm 1 m/S 744 mmHg 87%
07:00 +10°C° 0 mm 1 m/S 744 mmHg 84%
08:00 +11°C° 0 mm 1 m/S 744 mmHg 76%
09:00 +12°C° 0 mm 1 m/S 744 mmHg 69%
10:00 +13°C° 0 mm 2 m/S 744 mmHg 61%
11:00 +12°C° 0 mm 3 m/S 744 mmHg 58%
12:00 +13°C° 0 mm 3 m/S 744 mmHg 55%
13:00 +13°C° 0 mm 4 m/S 744 mmHg 52%
14:00 +14°C° 0 mm 4 m/S 744 mmHg 54%
15:00 +14°C° 0 mm 5 m/S 743 mmHg 56%
16:00 +14°C° 0 mm 5 m/S 743 mmHg 58%
17:00 +13°C° 0.1 mm 5 m/S 743 mmHg 66%
18:00 +12°C° 0.1 mm 5 m/S 742 mmHg 74%
19:00 +10°C° 0.1 mm 5 m/S 742 mmHg 82%
20:00 +10°C° 0.1 mm 4 m/S 742 mmHg 86%
21:00 +8°C° 0.1 mm 4 m/S 742 mmHg 90%
22:00 +9°C° 0.1 mm 3 m/S 742 mmHg 94%
23:00 +9°C° 0.5 mm 3 m/S 742 mmHg 95%

17 Mai, Montag

Zeit Temperatur Niederschläge Wind Luftdruck Luftfeuchtigkeit
00:00 +9°C° 0.5 mm 3 m/S 742 mmHg 95%
01:00 +9°C° 0.5 mm 3 m/S 742 mmHg 95%
02:00 +8°C° 0.3 mm 2 m/S 742 mmHg 95%
03:00 +8°C° 0.3 mm 2 m/S 742 mmHg 96%
04:00 +8°C° 0.3 mm 2 m/S 742 mmHg 96%
05:00 +9°C° 0 mm 2 m/S 742 mmHg 93%
06:00 +10°C° 0 mm 1 m/S 742 mmHg 90%
07:00 +10°C° 0 mm 1 m/S 742 mmHg 87%
08:00 +10°C° 0.1 mm 2 m/S 743 mmHg 84%
09:00 +12°C° 0.1 mm 2 m/S 743 mmHg 80%
10:00 +11°C° 0.1 mm 3 m/S 743 mmHg 77%
11:00 +12°C° 0 mm 3 m/S 743 mmHg 71%
12:00 +13°C° 0 mm 3 m/S 743 mmHg 65%
13:00 +13°C° 0 mm 3 m/S 743 mmHg 59%
14:00 +14°C° 0 mm 2 m/S 743 mmHg 58%
15:00 +14°C° 0 mm 2 m/S 743 mmHg 57%
16:00 +14°C° 0 mm 2 m/S 743 mmHg 56%
17:00 +13°C° 0.2 mm 2 m/S 743 mmHg 62%
18:00 +12°C° 0.2 mm 2 m/S 743 mmHg 67%
19:00 +12°C° 0.2 mm 2 m/S 743 mmHg 73%
20:00 +11°C° 0.3 mm 1 m/S 743 mmHg 78%
21:00 +10°C° 0.3 mm 1 m/S 743 mmHg 83%
22:00 +10°C° 0.3 mm 1 m/S 743 mmHg 88%
23:00 +10°C° 0.2 mm 1 m/S 743 mmHg 89%

18 Mai, Dienstag

Zeit Temperatur Niederschläge Wind Luftdruck Luftfeuchtigkeit
00:00 +10°C° 0.2 mm 1 m/S 743 mmHg 90%
01:00 +10°C° 0.2 mm 1 m/S 743 mmHg 91%
02:00 +10°C° 0.1 mm 1 m/S 743 mmHg 92%
03:00 +10°C° 0.1 mm 1 m/S 743 mmHg 93%
04:00 +10°C° 0.1 mm 1 m/S 743 mmHg 93%
05:00 +10°C° 0.1 mm 1 m/S 743 mmHg 92%
06:00 +10°C° 0.1 mm 1 m/S 743 mmHg 90%
07:00 +11°C° 0.1 mm 1 m/S 743 mmHg 89%
08:00 +11°C° 0.2 mm 1 m/S 744 mmHg 84%
09:00 +12°C° 0.2 mm 1 m/S 744 mmHg 80%
10:00 +13°C° 0.2 mm 2 m/S 744 mmHg 75%
11:00 +13°C° 0.3 mm 2 m/S 744 mmHg 76%
12:00 +13°C° 0.3 mm 2 m/S 744 mmHg 76%
13:00 +13°C° 0.3 mm 2 m/S 744 mmHg 77%
14:00 +12°C° 0.3 mm 2 m/S 744 mmHg 79%
15:00 +11°C° 0.3 mm 3 m/S 744 mmHg 82%
16:00 +10°C° 0.3 mm 3 m/S 744 mmHg 85%
17:00 +10°C° 0.3 mm 3 m/S 744 mmHg 86%
18:00 +10°C° 0.3 mm 3 m/S 744 mmHg 88%
19:00 +10°C° 0.3 mm 3 m/S 744 mmHg 90%
20:00 +10°C° 0.2 mm 3 m/S 744 mmHg 91%
21:00 +9°C° 0.2 mm 3 m/S 744 mmHg 92%
22:00 +9°C° 0.2 mm 3 m/S 744 mmHg 94%
23:00 +8°C° 0.3 mm 3 m/S 744 mmHg 93%

19 Mai, Mittwoch

Zeit Temperatur Niederschläge Wind Luftdruck Luftfeuchtigkeit
00:00 +8°C° 0.3 mm 3 m/S 744 mmHg 93%
01:00 +7°C° 0.3 mm 4 m/S 744 mmHg 93%
02:00 +7°C° 0.1 mm 4 m/S 744 mmHg 91%
03:00 +6°C° 0.1 mm 4 m/S 744 mmHg 90%
04:00 +6°C° 0.1 mm 5 m/S 744 mmHg 88%
05:00 +7°C° 0 mm 5 m/S 745 mmHg 84%
06:00 +8°C° 0 mm 6 m/S 745 mmHg 80%
07:00 +8°C° 0 mm 6 m/S 745 mmHg 76%
08:00 +10°C° 0 mm 6 m/S 745 mmHg 68%
09:00 +11°C° 0 mm 7 m/S 746 mmHg 60%
10:00 +12°C° 0 mm 7 m/S 746 mmHg 53%
11:00 +14°C° 0 mm 7 m/S 746 mmHg 51%
12:00 +15°C° 0 mm 8 m/S 746 mmHg 49%
13:00 +15°C° 0 mm 8 m/S 746 mmHg 48%
14:00 +13°C° 0 mm 8 m/S 747 mmHg 51%
15:00 +13°C° 0 mm 8 m/S 747 mmHg 54%
16:00 +12°C° 0 mm 8 m/S 747 mmHg 57%
17:00 +11°C° 0 mm 8 m/S 747 mmHg 60%
18:00 +11°C° 0 mm 7 m/S 747 mmHg 64%
19:00 +10°C° 0 mm 7 m/S 747 mmHg 68%
20:00 +9°C° 0 mm 7 m/S 747 mmHg 73%
21:00 +8°C° 0 mm 7 m/S 747 mmHg 79%
22:00 +7°C° 0 mm 6 m/S 747 mmHg 85%
23:00 +7°C° 0 mm 6 m/S 747 mmHg 84%
Mehr zeigen

Wir brauchen deine Erlaubnis

Meteoprog und unser Service Anbieter werden persönliche Daten aufbewahren, so wie Cookies, Geräte Bezeichnung oder ähnliche Technologien von deinem Gerät und Prozess, so wie Persönliche Daten Inhalte und Werbungen, genauso wie social Media und den Verkehr zu analysieren.

  • Aufbewahrung und/oder Zugang zu deiner Geräte Informationen.

    Cookies, Geräte Bezeichnung oder andere Informationen, können aufbewahrt oder Zugang zu deinem Gerät erhalten, für den Grund, der oben angegeben wird.

  • Personalisierte Werbung und Inhalte, Messungen, Einblick in das Publikum und Produkt Entwicklung.

    Werbungen und Inhalte können personalisiert werden, basierend auf ein Profil. Mehr Daten können besser personalisierte Werbungen und Inhalte hinzufügen. Werbung und Inhalte können gezeigt und gemessen werden. Einblicke über das Publikum, welche die Werbung gesehen haben und den Inhalt, können abgeleitet werden. So wie Daten können genutzt werden, um es zu verbessern oder die Benutzer Erfahrung zu verbessern das System und die Software.

Wenn du “Ich stimme zu” klickst, erlaubst du uns, die Cookies zu benutzen die Geräte Bezeichnung, den Web oder ähnliche Technologien zu benutzen. Deine Settings, können in deinem Gerät bei deinem Browser geändert werden.

Für den bestimmten Zweck, berechtigten Interessen beruhen darauf, mehr als auf den Inhalt. Du kannst mehr darüber in unseren Privaten und Cookie Politik lesen.